Skip Page Navigation
NASA JPL Caltech
NASA Logo - Jet Propulsion Laboratory + View the NASA Portal
+ Center for Near-Earth Object Studies
JPL Home Earth Solar System Stars & Galaxies Technology
JPL Solar System Dynamics
BODIES ORBITS EPHEMERIDES TOOLS PHYSICAL DATA DISCOVERY FAQ SITE MAP
JPL Small-Body Database Browser
Search: [ help ]  
123020 (2000 SV270)
Classification: Main-belt Asteroid          SPK-ID: 2123020
Ephemeris | Orbit Diagram | Orbital Elements | Mission Design | Physical Parameters | Discovery Circumstances ]

[ show orbit diagram ]
Orbital Elements at Epoch 2459000.5 (2020-May-31.0) TDB
Reference: JPL 20 (heliocentric ecliptic J2000)
 Element Value Uncertainty (1-sigma)   Units 
e .1691696588860674 4.2941e-08  
a 2.736689257859965 1.7544e-08 au
q 2.27372446963063 1.1482e-07 au
i 5.691898351491434 4.6016e-06 deg
node 54.28342684868832 4.6367e-05 deg
peri 283.512872155484 4.8187e-05 deg
M 157.7140593604573 1.3661e-05 deg
tp 2458276.056421106126
(2018-Jun-06.55642111)
6.1159e-05 TDB
period 1653.623585997073
4.53
1.5901e-05
4.353e-08
d
yr
n .217703716280107 2.0934e-09 deg/d
Q 3.1996540460893 2.0512e-08 au
  Orbit Determination Parameters
   # obs. used (total)      479  
   data-arc span      7143 days (19.56 yr)  
   first obs. used      2000-09-27  
   last obs. used      2020-04-18  
   planetary ephem.      DE431  
   SB-pert. ephem.      SB431-N16  
   condition code      0  
   norm. resid. RMS      .51869  
   source      ORB  
   producer      Otto Matic  
   solution date      2020-May-20 20:56:17  

Additional Information
 Earth MOID = 1.27312 au 
 Jupiter MOID = 2.20995 au 
 T_jup = 3.324 
[ show covariance matrix ]

Ephemeris | Orbit Diagram | Orbital Elements | Mission Design | Physical Parameters | Discovery Circumstances ]

Physical Parameter Table
Parameter Symbol Value Units Sigma Reference Notes
absolute magnitude H 15.7   n/a MPO459579  

123020 (2000 SV270)          Discovered 2000-Sep-27 by LINEAR at Socorro
Reference: 20060314/Numbers.arcLast Updated: 2006-03-23
Ephemeris | Orbit Diagram | Orbital Elements | Mission Design | Physical Parameters | Discovery Circumstances ]
ABOUT SSD CREDITS/AWARDS PRIVACY/COPYRIGHT GLOSSARY LINKS
FirstGov 2020-Nov-01 01:33 UT
(server date/time)  
NASA Home Page
Site Manager:   Ryan S. Park
Webmaster  Alan B. Chamberlin